Weather in Edea

Cameroon     3°47′54″N   10°07′47″E
temp.,
°C
wind,
m/s
gust,
m/s
humid.,
%
clouds,
%
prec.,
mm/h
press.,
hPa
HPBL,
m
14 april, wed
wed1401:00+22se1298100 3.1 1013108
04:00+22e1697100 0.5 1011221
07:00+22ene2997100 1.0 1012346
10:00+23ene2894100 0.1 1014334
13:00+25n138482 0.1 1011266
16:00+29wnw216575 0.0 1009559
19:00+24s148896 0.1 1009124
22:00+23ne119599 0.1 101319
15 april, thu
thu1501:00+22ene259585 0.1 1011132
04:00+23e3108961 0.0 1010383
07:00+23ene31285100 0.0 1011462
10:00+30ne375798 0.0 1011787
13:00+36e253694 0.0 10071687
16:00+36se133465 0.0 10041900
19:00+26wsw287818 0.0 1007336
22:00+25s118970 0.0 100950
16 april, fri
fri1601:00+24nnw009350 0.0 100915
04:00+24e1196100 0.0 100916
07:00+25n009198 0.0 101064
10:00+31ssw226283 0.1 10111261
13:00+31wsw236298 0.5 1008902
16:00+29wsw2676100 2.3 1007661
19:00+26sw2888100 3.1 1007344
22:00+24wsw1194100 0.0 100941
17 april, sat
sat1701:00+24nne1198100 1.1 101022
04:00+24w119877 3.3 100832
07:00+24s1498100 3.4 1011195
10:00+27s1282100 0.1 1012484
13:00+32wsw1157100 0.1 10091400
16:00+29w247492 0.3 1007290
19:00+25w168778 0.3 1009186
22:00+24w1293100 0.0 101162
18 april, sun
sun1801:00+23wnw019771 0.0 101019
04:00+23s0098100 0.0 100924
07:00+24n009399 0.0 101188
10:00+30nw1264100 0.0 10121031
13:00+35w114583 0.1 10092007
16:00+28sw387588 0.4 1007339
19:00+26sw158292 0.6 1009154
22:00+23ese1197100 4.5 101214